Date,TemperatureHighF,TemperatureAvgF,TemperatureLowF,DewpointHighF,DewpointAvgF,DewpointLowF,HumidityHigh,HumidityAvg,HumidityLow,PressureMaxIn,PressureMinIn,WindSpeedMaxMPH,WindSpeedAvgMPH,GustSpeedMaxMPH,PrecipitationSumIn
2013-1-1,46.0,42.7,40.0,45.0,37.6,26.0,99,83,52,0.00,40.00,6,3,9,0.25
2013-1-2,50.0,45.2,40.0,45.0,38.2,29.0,100,78,54,0.00,40.00,6,2,11,0.23
2013-1-3,44.0,38.4,30.0,36.0,30.5,22.0,91,73,63,0.00,40.00,3,2,7,0.01
2013-1-4,51.0,37.4,25.0,23.0,17.6,11.0,76,47,24,0.00,40.00,10,4,18,0.00
2013-1-5,50.0,36.1,22.0,31.0,20.7,16.0,83,57,26,0.00,40.00,5,2,10,0.00
2013-1-6,54.0,42.0,36.0,36.0,31.6,25.0,90,68,48,0.00,40.00,8,3,22,0.02
2013-1-7,51.0,37.9,28.0,28.0,24.7,22.0,82,61,35,0.00,40.00,4,2,8,0.00
2013-1-8,51.0,37.8,26.0,37.0,29.8,22.0,89,74,51,0.00,40.00,5,1,7,0.00
2013-1-9,60.0,49.6,39.0,50.0,43.6,35.0,95,80,64,0.00,40.00,7,2,11,0.00
2013-1-10,65.0,54.3,47.0,51.0,40.8,31.0,100,65,35,0.00,40.00,3,2,7,0.00
2013-1-11,53.0,45.6,43.0,46.0,43.8,34.0,100,94,48,0.00,40.00,3,2,9,0.17
2013-1-12,65.0,54.3,46.0,59.0,53.1,46.0,100,96,77,0.00,40.00,5,1,9,0.01
2013-1-13,70.0,60.4,53.0,61.0,56.8,53.0,100,89,66,0.00,40.00,10,4,22,0.01
2013-1-14,63.0,61.2,57.0,63.0,61.1,57.0,100,99,93,0.00,40.00,5,3,11,0.51
2013-1-15,60.0,45.8,40.0,60.0,45.0,39.0,100,98,94,0.00,40.00,4,2,11,1.07
2013-1-16,48.0,44.2,40.0,48.0,43.6,39.0,99,98,93,0.00,40.00,4,2,6,0.61
2013-1-17,50.0,43.4,33.0,50.0,42.5,32.0,100,97,89,0.00,40.00,9,4,21,2.00
2013-1-18,47.0,36.2,26.0,34.0,25.4,21.0,98,69,36,0.00,40.00,6,2,13,0.85
2013-1-19,53.0,36.6,25.0,28.0,24.9,22.0,94,66,34,0.00,40.00,7,2,12,0.01
2013-1-20,62.0,42.4,28.0,34.0,26.0,22.0,89,58,21,0.00,40.00,8,3,16,0.01
2013-1-21,58.0,41.3,27.0,31.0,21.8,11.0,89,52,23,0.00,40.00,12,4,26,0.00
2013-1-22,38.0,31.3,27.0,6.0,-4.1,-14.0,33,22,10,0.00,40.00,9,5,18,0.00
2013-1-23,45.0,31.9,20.0,18.0,10.2,-7.0,64,42,22,0.00,40.00,8,3,16,0.02
2013-1-24,41.0,32.4,23.0,27.0,9.6,-1.0,81,43,20,0.00,40.00,9,4,22,0.02
2013-1-25,25.0,22.0,17.0,23.0,12.7,1.0,93,69,38,0.00,40.00,8,3,13,0.00
2013-1-26,35.0,28.5,21.0,32.0,26.8,19.0,98,93,87,0.00,40.00,5,2,9,0.10
2013-1-27,41.0,31.8,21.0,29.0,24.5,20.0,97,76,53,0.00,40.00,5,2,8,0.01
2013-1-28,52.0,40.1,34.0,42.0,35.7,31.0,99,85,67,0.00,40.00,7,3,12,0.02
2013-1-29,70.0,52.0,33.0,57.0,46.0,33.0,100,83,53,0.00,40.00,10,4,18,0.01
2013-1-30,67.0,63.0,55.0,62.0,59.8,52.0,99,90,76,0.00,40.00,15,10,30,1.62
2013-1-31,55.0,40.5,34.0,52.0,20.1,16.0,91,45,34,0.00,40.00,15,8,27,1.54
2013-2-1,37.0,31.3,25.0,25.0,8.6,-1.0,67,40,23,0.00,40.00,14,7,30,0.00
2013-2-2,40.0,29.8,17.0,33.0,13.2,3.0,92,53,28,0.00,40.00,9,4,15,0.00
2013-2-3,47.0,37.9,28.0,33.0,25.1,17.0,98,63,36,0.00,40.00,10,4,21,0.00
2013-2-4,49.0,36.3,25.0,24.0,20.7,14.0,78,55,35,0.00,40.00,7,4,12,0.00
2013-2-5,61.0,42.8,29.0,35.0,28.1,23.0,85,60,26,0.00,40.00,10,3,20,0.00
2013-2-6,62.0,48.0,35.0,34.0,24.1,18.0,83,45,18,0.00,40.00,6,3,12,0.00
2013-2-7,44.0,39.8,37.0,38.0,31.1,19.0,97,74,37,0.00,40.00,4,3,9,0.75
2013-2-8,56.0,44.6,37.0,45.0,35.1,23.0,99,73,33,0.00,40.00,9,5,20,0.57
2013-2-9,58.0,41.2,28.0,25.0,19.9,15.0,78,47,19,0.00,40.00,6,3,12,0.00
2013-2-10,53.0,41.7,30.0,40.0,24.2,19.0,96,55,27,0.00,40.00,8,3,14,0.14
2013-2-11,56.0,48.2,41.0,55.0,46.4,33.0,100,94,58,0.00,40.00,6,3,10,0.20
2013-2-12,59.0,48.6,42.0,37.0,28.0,19.0,79,47,21,0.00,40.00,7,3,12,0.01
2013-2-13,47.0,42.3,36.0,43.0,40.4,32.0,100,94,62,0.00,40.00,5,2,11,0.17
2013-2-14,52.0,39.3,27.0,34.0,29.5,26.0,98,71,39,0.00,40.00,8,3,15,0.01
2013-2-15,60.0,42.7,27.0,38.0,30.1,26.0,98,68,29,0.00,40.00,9,4,18,0.00
2013-2-16,44.0,35.3,28.0,33.0,22.8,11.0,95,61,42,0.00,40.00,8,3,19,0.00
2013-2-17,39.0,29.4,23.0,16.0,7.3,3.0,66,40,23,0.00,40.00,10,6,22,0.01
2013-2-18,52.0,35.4,19.0,25.0,17.1,9.0,71,49,29,0.00,40.00,9,4,15,0.01
2013-2-19,50.0,40.9,34.0,41.0,28.8,8.0,95,66,25,0.00,40.00,10,5,16,0.08
2013-2-20,53.0,40.1,25.0,14.0,6.6,1.0,57,28,13,0.00,40.00,8,4,13,0.01
2013-2-21,57.0,39.2,22.0,25.0,14.3,8.0,68,40,18,0.00,40.00,4,2,11,0.00
2013-2-22,45.0,35.1,33.0,36.0,33.7,25.0,100,95,46,0.00,40.00,3,2,10,0.50
2013-2-23,47.0,39.7,34.0,42.0,37.9,34.0,100,94,81,0.00,40.00,4,2,8,0.23
2013-2-24,61.0,46.9,32.0,42.0,29.1,18.0,100,59,19,0.00,40.00,9,4,20,0.01
2013-2-25,43.0,38.0,34.0,25.0,23.4,20.0,66,55,47,0.00,40.00,3,2,8,0.00
2013-2-26,39.0,34.8,31.0,38.0,31.8,21.0,100,90,53,0.00,40.00,5,3,16,1.28
2013-2-27,56.0,43.4,35.0,41.0,36.1,34.0,100,79,46,0.00,40.00,9,4,17,0.05
2013-2-28,44.0,40.7,36.0,35.0,24.8,22.0,74,53,43,0.00,40.00,8,5,18,0.00
2013-3-1,44.0,38.7,32.0,31.0,26.4,23.0,87,62,48,0.00,40.00,7,4,14,0.00
2013-3-2,45.0,36.9,32.0,34.0,26.8,18.0,87,68,39,0.00,40.00,9,4,19,0.00
2013-3-3,42.0,32.0,20.0,21.0,14.9,13.0,80,50,33,0.00,40.00,8,4,16,0.00
2013-3-4,54.0,37.8,24.0,21.0,12.1,7.0,58,37,15,0.00,40.00,7,4,17,0.00
2013-3-5,45.0,40.1,36.0,41.0,32.5,21.0,99,76,44,0.00,40.00,5,2,10,0.55
2013-3-6,44.0,37.3,32.0,40.0,23.5,18.0,100,58,45,0.00,40.00,13,7,28,0.47
2013-3-7,51.0,38.6,27.0,28.0,23.7,21.0,85,57,37,0.00,40.00,7,5,16,0.00
2013-3-8,56.0,41.2,27.0,27.0,20.7,17.0,76,47,24,0.00,40.00,9,4,18,0.00
2013-3-9,63.0,44.7,27.0,31.0,26.6,22.0,84,53,27,0.00,40.00,5,2,10,0.00
2013-3-10,65.0,53.0,39.0,38.0,32.6,28.0,73,48,30,0.00,40.00,7,3,13,0.00
2013-3-11,65.0,52.7,41.0,53.0,38.4,26.0,95,59,42,0.00,40.00,9,4,19,0.18
2013-3-12,62.0,54.5,45.0,56.0,43.5,29.0,100,72,33,0.00,40.00,8,5,16,1.23
2013-3-13,51.0,42.5,34.0,30.0,22.0,13.0,78,46,29,0.00,40.00,11,6,23,0.05
2013-3-14,52.0,39.0,29.0,15.0,13.1,9.0,55,36,18,0.00,40.00,9,5,19,0.00
2013-3-15,64.0,47.0,30.0,36.0,25.3,15.0,69,44,32,0.00,40.00,11,5,20,0.00
2013-3-16,78.0,61.9,44.0,46.0,41.7,35.0,75,51,26,0.00,40.00,13,6,25,0.00
2013-3-17,63.0,53.8,40.0,51.0,45.3,37.0,89,73,50,0.00,40.00,5,3,14,0.00
2013-3-18,40.0,37.3,36.0,37.0,36.2,35.0,98,96,89,0.00,40.00,4,3,12,0.30
2013-3-19,62.0,47.1,35.0,39.0,25.7,6.0,100,56,16,0.00,40.00,12,6,24,0.27
2013-3-20,56.0,45.7,37.0,15.0,9.4,4.0,28,23,17,0.00,40.00,9,5,20,0.00
2013-3-21,45.0,35.0,29.0,22.0,10.4,6.0,53,36,26,0.00,40.00,12,6,22,0.00
2013-3-22,51.0,35.0,19.0,20.0,13.9,8.0,77,45,24,0.00,40.00,9,4,17,0.00
2013-3-23,59.0,45.4,35.0,32.0,26.7,20.0,72,49,33,0.00,40.00,4,2,10,0.00
2013-3-24,45.0,40.3,35.0,42.0,37.6,32.0,98,91,59,0.00,40.00,5,3,12,0.68
2013-3-25,43.0,37.6,33.0,35.0,27.4,19.0,99,70,39,0.00,40.00,14,7,25,0.02
2013-3-26,45.0,38.4,32.0,26.0,21.2,19.0,74,50,38,0.00,40.00,10,6,19,0.01
2013-3-27,49.0,38.8,32.0,26.0,20.7,18.0,72,50,30,0.00,40.00,7,4,20,0.00
2013-3-28,53.0,47.4,35.0,23.0,18.7,16.0,54,34,23,0.00,40.00,8,4,18,0.00
2013-3-29,60.0,43.5,26.0,32.0,23.7,19.0,84,50,21,0.00,40.00,9,3,19,0.00
2013-3-30,63.0,50.2,36.0,39.0,32.2,27.0,84,54,29,0.00,40.00,7,3,14,0.00
2013-3-31,67.0,53.2,47.0,54.0,47.3,-99.9,100,86,59,0.00,40.00,9,3,17,0.31
2013-4-1,67.0,56.0,44.0,53.0,40.6,31.0,100,62,31,0.00,40.00,11,4,18,0.06
2013-4-2,61.0,50.1,39.0,31.0,23.0,15.0,62,37,17,0.00,40.00,9,5,16,0.00
2013-4-3,60.0,48.7,36.0,24.0,17.3,12.0,37,29,21,0.00,40.00,5,3,10,0.00
2013-4-4,49.0,39.2,34.0,35.0,24.7,10.0,98,63,26,0.00,40.00,5,3,14,0.90
2013-4-5,65.0,50.6,36.0,44.0,36.7,29.0,99,66,28,0.00,40.00,7,3,15,0.51
2013-4-6,67.0,53.5,38.0,38.0,32.9,30.0,86,50,28,0.00,40.00,5,3,11,0.00
2013-4-7,69.0,55.4,41.0,45.0,40.6,33.0,92,60,38,0.00,40.00,11,4,21,0.00
2013-4-8,76.0,61.6,46.0,55.0,48.3,43.0,95,65,38,0.00,40.00,12,4,21,0.00
2013-4-9,82.0,66.3,50.0,55.0,51.5,47.0,94,63,38,0.00,40.00,10,4,17,0.00
2013-4-10,84.0,71.3,56.0,59.0,55.0,52.0,90,59,38,0.00,40.00,10,4,18,0.00
2013-4-11,79.0,68.7,59.0,65.0,57.9,55.0,95,70,46,0.00,40.00,13,6,29,0.10
2013-4-12,79.0,68.1,59.0,67.0,55.3,35.0,98,69,28,0.00,40.00,14,8,29,0.96
2013-4-13,76.0,60.2,41.0,42.0,35.0,29.0,85,43,19,0.00,40.00,8,4,16,0.12
2013-4-14,75.0,59.7,43.0,48.0,39.2,31.0,80,50,28,0.00,40.00,8,3,15,0.00
2013-4-15,59.0,56.2,54.0,56.0,54.0,47.0,98,93,68,0.00,40.00,8,3,14,0.36
2013-4-16,78.0,64.8,57.0,61.0,57.3,55.0,98,79,49,0.00,40.00,7,2,13,0.01
2013-4-17,76.0,66.7,57.0,62.0,58.3,55.0,96,76,55,0.00,40.00,5,2,10,0.00
2013-4-18,78.0,67.4,59.0,62.0,58.8,55.0,100,77,48,0.00,40.00,8,4,16,0.00
2013-4-19,70.0,65.2,53.0,66.0,60.5,41.0,95,85,64,0.00,40.00,12,9,29,0.40
2013-4-20,65.0,52.3,38.0,41.0,29.5,26.0,72,44,25,0.00,40.00,10,4,20,0.03
2013-4-21,62.0,50.2,39.0,36.0,31.7,25.0,73,50,37,0.00,40.00,5,3,12,0.00
2013-4-22,63.0,50.8,40.0,37.0,31.6,28.0,75,51,28,0.00,40.00,5,3,13,0.00
2013-4-23,70.0,56.1,44.0,49.0,41.4,30.0,79,58,44,0.00,40.00,5,3,11,0.00
2013-4-24,72.0,59.8,48.0,57.0,51.8,47.0,98,77,52,0.00,40.00,13,6,24,0.00
2013-4-25,72.0,58.4,46.0,55.0,34.9,22.0,82,45,20,0.00,40.00,7,3,14,0.00
2013-4-26,70.0,56.8,42.0,43.0,33.2,25.0,64,43,28,0.00,40.00,5,2,10,0.00
2013-4-27,60.0,55.7,52.0,56.0,49.1,43.0,98,79,62,0.00,40.00,4,2,7,0.13
2013-4-28,54.0,53.2,52.0,54.0,51.5,-99.9,100,99,96,0.00,40.00,3,2,8,1.37
2013-4-29,71.0,59.4,53.0,59.0,55.3,53.0,100,88,60,0.00,40.00,6,2,12,0.36
2013-4-30,72.0,64.5,58.0,61.0,57.5,54.0,95,79,63,0.00,40.00,6,3,12,0.02
2013-5-1,65.0,59.4,53.0,55.0,53.6,51.0,99,82,66,0.00,40.00,5,3,13,0.02
2013-5-2,60.0,56.7,53.0,55.0,52.8,50.0,95,87,79,0.00,40.00,4,3,15,0.02
2013-5-3,64.0,57.8,53.0,55.0,50.1,48.0,96,76,57,0.00,40.00,4,3,12,0.01
2013-5-4,61.0,53.2,48.0,48.0,44.0,40.0,87,71,53,0.00,40.00,6,4,14,0.00
2013-5-5,54.0,50.8,47.0,54.0,46.2,39.0,99,85,65,0.00,40.00,6,4,18,0.72
2013-5-6,69.0,58.7,50.0,60.0,53.1,44.0,100,84,43,0.00,40.00,7,4,14,2.02
2013-5-7,69.0,53.5,47.0,56.0,50.2,45.0,100,90,49,0.00,40.00,6,2,14,0.15
2013-5-8,70.0,58.3,48.0,57.0,53.8,48.0,100,87,56,0.00,40.00,7,2,13,0.07
2013-5-9,80.0,65.0,47.0,58.0,53.6,47.0,100,72,37,0.00,40.00,6,3,14,0.00
2013-5-10,80.0,68.5,53.0,63.0,57.4,53.0,100,71,44,0.00,40.00,11,4,20,0.00
2013-5-11,77.0,67.0,60.0,65.0,59.8,57.0,100,79,52,0.00,40.00,8,4,15,0.47
2013-5-12,67.0,59.1,48.0,61.0,41.5,-99.9,100,60,26,0.00,40.00,9,4,17,0.46
2013-5-13,66.0,52.4,39.0,44.0,31.7,23.0,91,51,20,0.00,40.00,8,3,17,0.00
2013-5-14,71.0,55.0,38.0,45.0,38.8,32.0,88,58,36,0.00,40.00,9,4,16,0.00
2013-5-15,87.0,65.4,48.0,68.0,54.6,45.0,96,72,42,0.00,40.00,9,3,16,0.01
2013-5-16,82.0,62.0,57.0,64.0,34.1,-99.9,96,68,39,0.00,40.00,7,3,11,0.01
2013-5-17,84.0,68.0,55.0,63.0,52.9,-99.9,98,73,41,0.00,40.00,6,2,12,0.00
2013-5-18,71.0,65.6,61.0,66.0,63.3,60.0,99,92,82,0.00,40.00,6,2,11,0.17
2013-5-19,77.0,67.5,64.0,69.0,65.8,64.0,100,94,72,0.00,40.00,5,3,16,0.64
2013-5-20,82.0,71.5,66.0,69.0,66.9,63.0,100,87,55,0.00,40.00,5,3,9,0.55
2013-5-21,87.0,73.3,61.0,70.0,66.0,61.0,100,81,51,0.00,40.00,6,2,13,0.01
2013-5-22,83.0,69.8,63.0,68.0,64.6,57.0,100,85,56,0.00,40.00,9,4,21,0.55
2013-5-23,78.0,67.5,62.0,66.0,63.3,59.0,100,88,62,0.00,40.00,6,3,11,0.60
2013-5-24,69.0,62.2,50.0,62.0,45.4,31.0,100,59,27,0.00,40.00,11,5,21,0.30
2013-5-25,77.0,59.7,42.0,41.0,38.0,31.0,89,49,21,0.00,40.00,6,4,14,0.01
2013-5-26,74.0,62.4,53.0,54.0,46.2,36.0,87,57,39,0.00,40.00,6,3,10,0.00
2013-5-27,80.0,65.8,51.0,58.0,54.0,50.0,98,70,44,0.00,40.00,7,3,14,0.00
2013-5-28,81.0,69.7,57.0,64.0,60.3,56.0,98,75,50,0.00,40.00,9,4,17,0.00
2013-5-29,83.0,71.4,59.0,65.0,60.9,58.0,97,72,44,0.00,40.00,9,4,14,0.00
2013-5-30,83.0,70.5,58.0,65.0,61.1,57.0,99,75,49,0.00,40.00,6,3,11,0.00
2013-5-31,83.0,71.5,60.0,67.0,61.6,58.0,96,74,47,0.00,40.00,8,4,14,0.00
2013-6-1,83.0,73.6,65.0,68.0,63.4,60.0,97,73,49,0.00,40.00,10,5,19,0.00
2013-6-2,77.0,69.7,65.0,70.0,64.4,-99.9,100,88,72,0.00,40.00,7,4,14,3.25
2013-6-3,83.0,72.2,65.0,70.0,66.5,60.0,100,84,57,0.00,40.00,5,2,10,2.68
2013-6-4,78.0,69.6,65.0,65.0,63.0,60.0,100,80,58,0.00,40.00,4,2,7,0.01
2013-6-5,74.0,68.2,65.0,67.0,63.8,61.0,94,86,78,0.00,40.00,3,2,6,0.01
2013-6-6,76.0,69.7,65.0,71.0,68.0,64.0,100,95,79,0.00,40.00,6,4,11,1.70
2013-6-7,80.0,71.2,66.0,70.0,66.8,64.0,100,87,62,0.00,40.00,6,3,14,0.25
2013-6-8,81.0,72.1,63.0,68.0,65.5,61.0,100,82,58,0.00,40.00,6,3,11,0.35
2013-6-9,84.0,72.6,64.0,71.0,67.2,64.0,100,86,53,0.00,40.00,7,2,16,0.46
2013-6-10,77.0,71.0,66.0,73.0,68.0,65.0,100,91,69,0.00,40.00,9,5,19,2.28
2013-6-11,85.0,73.4,63.0,68.0,63.0,59.0,100,74,45,0.00,40.00,6,3,13,0.01
2013-6-12,91.0,75.9,62.0,74.0,67.6,61.0,98,78,49,0.00,40.00,7,3,15,0.00
2013-6-13,91.0,76.1,68.0,73.0,67.2,57.0,100,77,46,0.00,40.00,10,4,37,0.16
2013-6-14,81.0,71.1,59.0,63.0,53.5,49.0,85,57,33,0.00,40.00,8,4,18,0.01
2013-6-15,83.0,70.4,54.0,63.0,58.2,53.0,98,68,46,0.00,40.00,6,3,10,0.00
2013-6-16,84.0,72.9,62.0,68.0,63.1,60.0,96,73,51,0.00,40.00,7,3,13,0.00
2013-6-17,85.0,73.0,69.0,71.0,67.8,65.0,98,84,57,0.00,40.00,5,3,14,0.21
2013-6-18,77.0,71.7,68.0,73.0,69.0,66.0,100,92,76,0.00,40.00,8,4,13,0.64
2013-6-19,81.0,71.8,61.0,67.0,63.5,61.0,100,78,52,0.00,40.00,4,2,7,0.62
2013-6-20,80.0,70.0,65.0,67.0,65.1,63.0,97,85,63,0.00,40.00,6,2,10,0.00
2013-6-22,86.0,80.3,69.0,66.0,63.4,62.0,88,58,45,0.00,40.00,4,2,9,0.00
2013-6-23,89.0,75.3,64.0,69.0,65.7,61.0,98,75,42,0.00,40.00,6,2,10,0.00
2013-6-24,87.0,74.0,66.0,71.0,68.6,65.0,99,85,57,0.00,40.00,7,3,13,0.03
2013-6-25,88.0,76.2,67.0,74.0,69.5,67.0,100,82,54,0.00,40.00,6,3,10,0.03
2013-6-26,88.0,73.5,66.0,72.0,67.2,63.0,100,82,55,0.00,40.00,7,3,15,0.00
2013-6-27,86.0,75.6,67.0,73.0,68.8,66.0,100,81,60,0.00,40.00,6,4,12,0.01
2013-6-28,91.0,76.8,67.0,72.0,68.2,61.0,99,78,41,0.00,40.00,9,4,17,0.20
2013-6-29,86.0,76.0,66.0,70.0,67.2,64.0,100,77,50,0.00,40.00,9,4,15,0.20
2013-6-30,85.0,74.2,68.0,70.0,67.9,64.0,97,82,56,0.00,40.00,5,3,15,0.05
2013-7-1,81.0,71.6,65.0,69.0,67.1,65.0,100,87,64,0.00,40.00,7,2,15,0.05
2013-7-2,79.0,71.7,69.0,72.0,69.5,67.0,97,93,73,0.00,40.00,8,5,14,0.73
2013-7-3,79.0,72.9,69.0,73.0,70.6,69.0,100,93,74,0.00,40.00,8,4,14,2.31
2013-7-4,84.0,73.3,67.0,73.0,69.6,65.0,100,89,65,0.00,40.00,10,4,21,1.17
2013-7-5,80.0,73.4,69.0,73.0,71.1,68.0,100,93,69,0.00,40.00,8,4,17,0.63
2013-7-6,83.0,74.1,70.0,72.0,70.1,67.0,100,89,64,0.00,40.00,8,3,18,0.11
2013-7-7,83.0,75.2,72.0,75.0,71.3,67.0,99,88,70,0.00,40.00,9,5,15,0.26
2013-7-8,88.0,75.3,69.0,71.0,69.4,66.0,99,84,53,0.00,40.00,5,2,9,0.12
2013-7-9,88.0,78.2,70.0,73.0,69.9,66.0,100,79,49,0.00,40.00,10,2,19,0.02
2013-7-10,85.0,74.6,69.0,74.0,66.8,-99.9,100,82,66,0.00,40.00,10,4,19,0.02
2013-7-11,81.0,73.8,67.0,74.0,70.3,66.0,100,89,68,0.00,40.00,5,3,10,0.38
2013-7-12,80.0,72.6,67.0,70.0,68.1,64.0,100,87,68,0.00,40.00,3,2,9,0.38
2013-7-13,77.0,71.9,67.0,71.0,66.9,64.0,95,85,70,0.00,40.00,3,2,10,0.00
2013-7-14,85.0,75.6,71.0,73.0,70.3,67.0,99,85,60,0.00,40.00,5,3,14,0.41
2013-7-15,87.0,76.5,70.0,73.0,69.1,67.0,97,80,51,0.00,40.00,3,1,8,0.01
2013-7-16,93.0,84.1,72.0,72.0,67.6,61.0,94,62,38,0.00,40.00,4,2,7,0.00
2013-7-17,92.0,77.3,70.0,74.0,70.7,67.0,97,82,53,0.00,40.00,4,2,9,0.15
2013-7-18,92.0,79.5,69.0,74.0,71.0,68.0,99,78,52,0.00,40.00,7,2,15,0.01
2013-7-19,88.0,78.3,69.0,75.0,71.5,69.0,100,82,58,0.00,40.00,8,3,15,0.00
2013-7-20,82.0,74.1,70.0,74.0,69.5,-99.9,98,88,71,0.00,40.00,6,3,10,0.00
2013-7-21,86.0,73.2,68.0,73.0,70.6,68.0,100,93,59,0.00,40.00,6,2,16,0.14
2013-7-22,85.0,75.4,69.0,74.0,70.8,69.0,100,87,62,0.00,40.00,7,3,13,0.02
2013-7-23,88.0,76.4,67.0,71.0,67.5,60.0,100,77,42,0.00,40.00,7,4,15,0.08
2013-7-24,90.0,78.0,68.0,72.0,67.2,63.0,98,72,43,0.00,40.00,5,2,10,0.00
2013-7-25,81.0,74.2,67.0,69.0,64.8,62.0,94,74,55,0.00,40.00,5,2,9,0.03
2013-7-26,83.0,74.1,67.0,70.0,67.4,65.0,99,81,56,0.00,40.00,6,3,12,0.03
2013-7-27,77.0,71.0,67.0,71.0,68.5,67.0,100,92,77,0.00,40.00,5,2,9,2.76
2013-7-28,83.0,74.7,69.0,71.0,68.3,66.0,100,82,60,0.00,40.00,6,2,13,0.01
2013-7-29,84.0,72.0,61.0,71.0,63.1,60.0,99,77,44,0.00,40.00,4,2,10,0.00
2013-7-30,82.0,72.9,65.0,69.0,61.7,55.0,91,69,50,0.00,40.00,4,2,9,0.00
2013-7-31,76.0,71.1,68.0,71.0,68.8,67.0,98,93,76,0.00,40.00,3,1,6,0.27
2013-8-1,85.0,75.1,69.0,73.0,69.4,68.0,100,84,58,0.00,40.00,5,2,9,0.04
2013-8-2,85.0,74.1,64.0,70.0,66.3,62.0,100,79,54,0.00,40.00,4,2,10,0.02
2013-8-3,87.0,76.7,67.0,74.0,67.8,64.0,100,77,47,0.00,40.00,6,3,11,0.00
2013-8-4,86.0,75.8,67.0,70.0,63.0,55.0,98,68,38,0.00,40.00,4,2,13,0.05
2013-8-5,81.0,72.3,64.0,68.0,63.3,59.0,93,74,58,0.00,40.00,8,3,15,0.29
2013-8-6,76.0,70.8,66.0,70.0,67.8,64.0,100,91,80,0.00,40.00,6,3,11,0.80
2013-8-7,78.0,72.4,69.0,74.0,70.2,68.0,99,93,75,0.00,40.00,6,3,12,0.42
2013-8-8,84.0,74.6,70.0,75.0,71.8,69.0,100,92,69,0.00,40.00,5,2,11,0.47
2013-8-9,89.0,76.9,71.0,74.0,71.8,70.0,100,86,56,0.00,40.00,8,3,14,0.27
2013-8-10,88.0,75.2,71.0,75.0,72.0,67.0,100,91,61,0.00,40.00,6,3,17,0.23
2013-8-11,89.0,76.8,68.0,77.0,71.8,68.0,100,86,57,0.00,40.00,5,2,15,0.17
2013-8-12,87.0,75.6,68.0,74.0,70.2,68.0,100,85,56,0.00,40.00,6,2,14,0.01
2013-8-13,85.0,73.9,69.0,75.0,69.0,-99.9,100,88,65,0.00,40.00,7,2,13,0.13
2013-8-14,79.0,71.0,64.0,68.0,61.4,57.0,94,73,50,0.00,40.00,3,1,7,0.13
2013-8-15,72.0,59.9,58.0,60.0,44.2,-99.9,97,68,58,0.00,40.00,2,1,8,0.00
2013-8-16,73.0,63.0,56.0,59.0,53.4,-99.9,98,77,59,0.00,40.00,2,1,7,0.00
2013-8-17,66.0,62.6,59.0,62.0,59.1,56.0,98,89,76,0.00,40.00,3,2,8,0.18
2013-8-18,76.0,67.5,63.0,68.0,63.3,-99.9,100,90,68,0.00,40.00,3,2,6,0.99
2013-8-19,77.0,66.4,67.0,69.0,56.9,-99.9,100,91,72,0.00,40.00,4,2,8,0.45
2013-8-20,78.0,69.7,65.0,69.0,65.3,-99.9,100,91,71,0.00,40.00,4,1,10,0.01
2013-8-21,81.0,72.4,67.0,74.0,69.8,67.0,100,92,69,0.00,40.00,4,2,8,0.02
2013-8-22,88.0,77.4,69.0,74.0,68.7,66.0,100,78,49,0.00,40.00,5,2,17,0.19
2013-8-23,87.0,73.0,65.0,71.0,67.6,65.0,100,85,52,0.00,40.00,5,2,9,0.32
2013-8-24,80.0,71.0,61.0,64.0,57.6,54.0,90,66,41,0.00,40.00,4,2,10,0.12
2013-8-25,80.0,66.4,57.0,62.0,55.9,-99.9,99,75,44,0.00,40.00,3,1,9,0.00
2013-8-26,83.0,69.2,55.0,65.0,61.1,55.0,100,79,51,0.00,40.00,5,2,9,0.00
2013-8-27,89.0,71.9,61.0,69.0,64.9,61.0,100,83,50,0.00,40.00,4,1,9,0.00
2013-8-28,88.0,82.6,73.0,72.0,70.2,68.0,95,68,51,0.00,40.00,6,4,13,0.00
2013-8-29,92.0,79.1,69.0,74.0,70.3,65.0,98,77,50,0.00,40.00,4,2,10,0.27
2013-8-30,85.0,75.7,70.0,72.0,68.6,66.0,97,80,56,0.00,40.00,4,2,9,0.27
2013-8-31,85.0,73.3,67.0,73.0,69.3,67.0,100,88,61,0.00,40.00,7,2,19,0.36
2013-9-1,86.0,70.4,67.0,74.0,67.5,-99.9,100,94,66,0.00,40.00,8,2,23,1.49
2013-9-2,89.0,74.2,64.0,73.0,67.9,64.0,100,84,50,0.00,40.00,6,2,15,0.23
2013-9-3,88.0,74.4,65.0,70.0,65.2,62.0,100,77,45,0.00,40.00,5,2,12,0.02
2013-9-4,84.0,70.0,60.0,67.0,62.4,58.0,98,80,49,0.00,40.00,4,2,9,0.01
2013-9-5,86.0,73.2,62.0,67.0,61.6,55.0,98,73,37,0.00,40.00,4,2,8,0.00
2013-9-6,80.0,69.4,61.0,65.0,59.6,55.0,95,73,50,0.00,40.00,3,1,7,0.00
2013-9-7,81.0,69.3,58.0,67.0,62.2,57.0,98,80,57,0.00,40.00,7,2,13,0.00
2013-9-8,87.0,72.1,61.0,69.0,62.8,-99.9,100,78,43,0.00,40.00,4,1,14,0.00
2013-9-9,85.0,73.8,65.0,69.0,66.3,64.0,99,80,49,0.00,40.00,6,2,9,0.00
2013-9-10,87.0,74.2,64.0,70.0,67.0,63.0,99,81,51,0.00,40.00,5,2,9,0.00
2013-9-11,87.0,73.7,65.0,71.0,68.4,65.0,100,86,56,0.00,40.00,6,2,10,0.00
2013-9-12,88.0,73.5,66.0,71.0,67.9,62.0,100,85,47,0.00,40.00,5,2,11,0.00
2013-9-13,82.0,71.8,62.0,64.0,56.2,48.0,95,61,35,0.00,40.00,5,3,14,0.00
2013-9-14,76.0,62.0,52.0,56.0,50.4,46.0,94,68,43,0.00,40.00,4,2,9,0.00
2013-9-15,77.0,60.8,52.0,63.0,54.5,-99.9,97,84,57,0.00,40.00,5,1,10,0.00
2013-9-16,83.0,69.7,58.0,67.0,59.5,57.0,100,74,44,0.00,40.00,7,2,12,0.00
2013-9-17,70.0,65.3,60.0,56.0,53.9,52.0,85,67,52,0.00,40.00,3,2,9,0.00
2013-9-18,62.0,59.1,57.0,58.0,51.1,50.0,89,75,68,0.00,40.00,2,1,8,0.00
2013-9-19,75.0,65.7,58.0,64.0,60.2,57.0,98,84,64,0.00,40.00,4,1,9,0.00
2013-9-20,86.0,69.2,60.0,69.0,64.6,60.0,100,88,50,0.00,40.00,4,1,7,0.06
2013-9-21,70.0,67.9,63.0,68.0,66.6,63.0,99,96,87,0.00,40.00,7,3,15,0.92
2013-9-22,77.0,63.4,54.0,63.0,53.6,-99.9,99,76,43,0.00,40.00,3,2,10,0.67
2013-9-23,73.0,61.4,55.0,57.0,52.9,47.0,98,75,52,0.00,40.00,4,1,10,0.01
2013-9-24,77.0,64.6,56.0,60.0,57.5,55.0,99,80,48,0.00,40.00,4,1,10,0.00
2013-9-25,68.0,61.2,57.0,61.0,58.4,56.0,99,91,74,0.00,40.00,2,1,5,0.10
2013-9-26,75.0,63.7,55.0,59.0,55.3,49.0,97,77,41,0.00,40.00,3,1,7,0.01
2013-9-27,75.0,62.3,51.0,56.0,52.9,50.0,98,74,45,0.00,40.00,3,1,9,0.00
2013-9-28,71.0,61.5,53.0,55.0,53.0,50.0,94,76,54,0.00,40.00,3,1,10,0.00
2013-9-29,71.0,59.7,52.0,59.0,52.3,-99.9,95,80,58,0.00,40.00,3,1,7,0.00
2013-9-30,76.0,62.8,51.0,60.0,55.2,50.0,98,79,44,0.00,40.00,4,1,9,0.00
2013-10-1,68.0,64.2,60.0,61.0,60.0,59.0,96,87,73,0.00,40.00,2,0,3,0.00
2013-10-2,83.0,66.5,54.0,62.0,57.7,54.0,100,78,42,0.00,40.00,4,1,8,0.00
2013-10-3,83.0,67.9,58.0,64.0,59.8,56.0,100,79,45,0.00,40.00,6,2,11,0.00
2013-10-4,86.0,68.8,57.0,66.0,60.9,57.0,100,80,43,0.00,40.00,4,1,7,0.00
2013-10-5,86.0,71.0,59.0,68.0,62.4,59.0,100,78,45,0.00,40.00,6,2,10,0.00
2013-10-6,64.0,60.9,59.0,64.0,60.7,59.0,100,99,97,0.00,40.00,1,0,4,0.00
2013-11-6,69.0,60.3,48.0,53.0,50.6,47.0,98,73,54,0.00,40.00,3,2,7,0.00
2013-11-7,68.0,51.4,36.0,56.0,42.0,30.0,100,75,37,0.00,40.00,10,3,24,0.00
2013-11-8,58.0,43.1,28.0,31.0,23.2,16.0,93,54,19,0.00,40.00,6,2,14,0.00
2013-11-9,56.0,39.9,27.0,33.0,25.1,-99.9,91,62,29,0.00,40.00,8,3,17,0.00
2013-11-10,72.0,54.0,34.0,34.0,29.5,26.0,90,46,19,0.00,40.00,9,4,20,0.00
2013-11-11,62.0,46.6,30.0,28.0,23.6,19.0,75,44,20,0.00,40.00,4,2,10,0.00
2013-11-12,62.0,41.4,30.0,34.0,25.3,10.0,81,55,27,0.00,40.00,7,4,23,0.00
2013-11-13,51.0,36.5,24.0,17.0,12.2,8.0,71,39,18,0.00,40.00,6,3,13,0.00
2013-11-14,58.0,37.1,20.0,24.0,18.5,16.0,85,54,20,0.00,40.00,7,2,11,0.00
2013-11-15,57.0,42.2,26.0,47.0,29.8,19.0,99,65,31,0.00,40.00,4,2,8,0.17
2013-11-16,60.0,52.1,47.0,53.0,48.7,-99.9,100,91,75,0.00,40.00,3,1,6,0.18
2013-11-17,62.0,56.6,53.0,58.0,55.4,52.0,100,96,83,0.00,40.00,6,2,10,0.27
2013-11-18,72.0,61.5,51.0,60.0,44.3,27.0,100,61,25,0.00,40.00,8,4,16,0.23
2013-11-19,56.0,46.9,35.0,30.0,23.6,20.0,67,41,26,0.00,40.00,7,2,14,0.01
2013-11-20,52.0,43.3,35.0,31.0,27.1,24.0,69,53,40,0.00,40.00,3,2,9,0.00
2013-11-21,53.0,47.9,41.0,45.0,38.1,27.0,82,69,55,0.00,40.00,3,2,6,0.00
2013-11-22,62.0,54.7,48.0,56.0,52.1,45.0,100,91,82,0.00,40.00,5,2,9,0.01
2013-11-23,61.0,52.6,40.0,56.0,37.0,-99.9,100,62,29,0.00,40.00,10,4,21,0.01
2013-11-24,40.0,33.1,26.0,18.0,6.2,-4.0,50,33,16,0.00,40.00,10,4,21,0.00
2013-11-25,36.0,29.0,18.0,15.0,7.9,0.0,69,42,27,0.00,40.00,6,2,10,0.00
2013-11-26,44.0,37.8,31.0,44.0,36.2,15.0,100,94,43,0.00,40.00,5,2,10,2.89
2013-11-27,45.0,37.3,25.0,45.0,26.8,12.0,100,67,42,0.00,40.00,11,5,24,0.83
2013-11-28,46.0,30.0,18.0,22.0,16.8,12.0,89,61,32,0.00,40.00,5,2,9,0.01
2013-11-29,53.0,35.0,23.0,24.0,21.6,19.0,89,63,31,0.00,40.00,3,1,9,0.00
2013-11-30,47.0,34.5,26.0,24.0,19.5,-99.9,81,57,36,0.00,40.00,4,2,9,0.00
2013-12-1,57.0,35.4,22.0,31.0,26.0,19.0,93,72,35,0.00,40.00,5,1,8,0.00
2013-12-2,59.0,43.0,29.0,39.0,32.4,27.0,97,71,37,0.00,40.00,4,2,8,0.00
2013-12-3,60.0,49.4,38.0,50.0,43.0,35.0,89,79,62,0.00,40.00,8,2,12,0.00
2013-12-4,56.0,53.3,50.0,55.0,53.1,50.0,100,100,89,0.00,40.00,4,1,6,0.01
2013-12-5,64.0,60.6,55.0,64.0,60.6,55.0,100,100,100,0.00,40.00,8,4,14,0.27
2013-12-6,73.0,68.4,64.0,66.0,63.2,59.0,100,84,65,0.00,40.00,13,10,26,0.26
2013-12-7,64.0,51.0,41.0,61.0,43.1,-99.9,100,78,61,0.00,40.00,5,3,18,0.35
2013-12-8,41.0,35.4,32.0,35.0,32.6,29.0,99,90,77,0.00,40.00,4,2,10,0.11
2013-12-9,44.0,37.6,33.0,43.0,37.3,32.0,100,99,96,0.00,40.00,4,3,7,0.43
2013-12-10,50.0,42.1,29.0,47.0,33.3,18.0,100,75,36,0.00,40.00,11,4,27,0.28
2013-12-11,50.0,35.1,22.0,28.0,21.1,17.0,92,61,32,0.00,40.00,6,2,11,0.03
2013-12-12,47.0,36.5,27.0,25.0,14.2,4.0,83,43,17,0.00,40.00,7,4,17,0.00
2013-12-13,50.0,34.4,21.0,27.0,18.0,13.0,82,55,25,0.00,40.00,6,2,11,0.00
2013-12-14,39.0,36.9,36.0,38.0,31.1,-99.9,100,83,62,0.00,40.00,4,2,8,0.68
2013-12-15,50.0,40.8,31.0,39.0,31.4,23.0,100,72,46,0.00,40.00,9,5,17,0.04
2013-12-16,59.0,40.6,26.0,34.0,28.2,22.0,94,66,29,0.00,40.00,7,3,14,0.00
2013-12-17,62.0,45.6,29.0,36.0,30.8,27.0,96,62,33,0.00,40.00,12,5,27,0.00
2013-12-18,52.0,39.5,28.0,18.0,13.7,6.0,67,38,17,0.00,40.00,7,4,15,0.00
2013-12-19,63.0,41.4,24.0,25.0,21.1,18.0,84,50,21,0.00,40.00,9,3,16,0.00
2013-12-20,61.0,47.3,36.0,45.0,34.9,23.0,93,64,42,0.00,40.00,8,3,15,0.00
2013-12-21,64.0,52.9,43.0,63.0,49.3,-99.9,100,90,74,0.00,40.00,7,3,11,0.00
2013-12-22,68.0,62.8,59.0,65.0,61.3,59.0,100,95,87,0.00,40.00,12,5,24,1.79
2013-12-23,63.0,55.7,42.0,63.0,52.0,31.0,100,88,65,0.00,40.00,8,4,17,1.84
2013-12-24,44.0,36.3,28.0,32.0,21.3,10.0,89,56,37,0.00,40.00,8,4,19,0.01
2013-12-25,39.0,27.7,17.0,20.0,9.8,4.0,88,51,25,0.00,40.00,6,2,10,0.00
2013-12-26,53.0,32.3,20.0,23.0,17.6,12.0,81,59,30,0.00,40.00,5,2,9,0.00
2013-12-27,53.0,34.9,23.0,26.0,19.8,14.0,93,60,23,0.00,40.00,5,2,10,0.00
2013-12-28,52.0,36.5,23.0,41.0,25.7,-99.9,99,72,34,0.00,40.00,6,2,8,0.12
2013-12-29,59.0,44.8,40.0,49.0,40.8,36.0,100,87,56,0.00,40.00,7,3,15,0.89
2013-12-30,51.0,42.4,32.0,40.0,35.9,31.0,100,78,61,0.00,40.00,5,1,11,0.02
2013-12-31,51.0,40.1,31.0,37.0,22.9,13.0,93,53,24,0.00,40.00,7,3,14,0.00
2014-1-1,49.0,34.8,26.0,28.0,24.0,19.0,88,67,38,0.00,40.00,7,2,12,0.00
2014-1-2,40.0,36.0,31.0,40.0,32.8,20.0,100,89,57,0.00,40.00,11,2,23,0.21